When you browse on this site, cookies collect data to enhance your experience and personalize the content and advertising you see.
Visit our Privacy Policy to learn more. By continuing to use the site, you agree to this use of cookies and data.
  • In Latvia
  • List of Countries
  • For 7 days
  • Water Temperature
  • Satellite Maps
  • Weather Map
  • Weather Widgets
  • user-avatar
    Login

    Hourly Weather Tobruk

    Today, 19 March, Tuesday

    Time Temperature Precipitation Wind Pressure Humidity
    00:00 +19°C° 0 mm 4 mps 761 mmHg 47%
    01:00 +18°C° 0 mm 4 mps 761 mmHg 46%
    02:00 +18°C° 0 mm 4 mps 761 mmHg 48%
    03:00 +18°C° 0 mm 3 mps 760 mmHg 46%
    04:00 +18°C° 0 mm 3 mps 760 mmHg 43%
    05:00 +18°C° 0 mm 2 mps 760 mmHg 40%
    06:00 +18°C° 0 mm 2 mps 760 mmHg 39%
    07:00 +18°C° 0 mm 2 mps 760 mmHg 37%
    08:00 +19°C° 0 mm 2 mps 760 mmHg 35%
    09:00 +20°C° 0 mm 2 mps 760 mmHg 32%
    10:00 +23°C° 0 mm 2 mps 760 mmHg 29%
    11:00 +25°C° 0 mm 2 mps 760 mmHg 25%
    12:00 +25°C° 0 mm 2 mps 760 mmHg 24%
    13:00 +26°C° 0 mm 2 mps 760 mmHg 23%
    14:00 +26°C° 0 mm 2 mps 759 mmHg 21%
    15:00 +26°C° 0 mm 3 mps 759 mmHg 24%
    16:00 +25°C° 0 mm 4 mps 759 mmHg 26%
    17:00 +25°C° 0 mm 5 mps 759 mmHg 29%
    18:00 +23°C° 0 mm 5 mps 759 mmHg 32%
    19:00 +22°C° 0 mm 5 mps 759 mmHg 35%
    20:00 +21°C° 0 mm 5 mps 759 mmHg 39%
    21:00 +21°C° 0 mm 4 mps 760 mmHg 39%
    22:00 +20°C° 0 mm 4 mps 760 mmHg 39%
    23:00 +20°C° 0 mm 3 mps 760 mmHg 39%

    Tomorrow, 20 March, Wednesday

    Time Temperature Precipitation Wind Pressure Humidity
    00:00 +20°C° 0 mm 3 mps 760 mmHg 40%
    01:00 +19°C° 0 mm 3 mps 760 mmHg 40%
    02:00 +19°C° 0 mm 3 mps 760 mmHg 41%
    03:00 +19°C° 0 mm 3 mps 759 mmHg 41%
    04:00 +19°C° 0 mm 3 mps 759 mmHg 41%
    05:00 +18°C° 0 mm 4 mps 759 mmHg 41%
    06:00 +19°C° 0 mm 3 mps 759 mmHg 39%
    07:00 +19°C° 0 mm 3 mps 759 mmHg 38%
    08:00 +19°C° 0 mm 3 mps 760 mmHg 36%
    09:00 +21°C° 0 mm 3 mps 760 mmHg 32%
    10:00 +24°C° 0 mm 3 mps 760 mmHg 27%
    11:00 +25°C° 0 mm 3 mps 760 mmHg 23%
    12:00 +26°C° 0 mm 3 mps 759 mmHg 22%
    13:00 +27°C° 0 mm 4 mps 759 mmHg 22%
    14:00 +27°C° 0 mm 5 mps 759 mmHg 21%
    15:00 +26°C° 0 mm 6 mps 759 mmHg 25%
    16:00 +26°C° 0 mm 7 mps 758 mmHg 29%
    17:00 +24°C° 0 mm 8 mps 758 mmHg 33%
    18:00 +23°C° 0 mm 8 mps 758 mmHg 38%
    19:00 +22°C° 0 mm 8 mps 759 mmHg 43%
    20:00 +20°C° 0 mm 8 mps 759 mmHg 48%
    21:00 +20°C° 0 mm 8 mps 759 mmHg 49%
    22:00 +20°C° 0 mm 7 mps 759 mmHg 51%
    23:00 +18°C° 0 mm 7 mps 760 mmHg 52%

    Day after tomorrow, 21 March, Thursday

    Time Temperature Precipitation Wind Pressure Humidity
    00:00 +18°C° 0 mm 7 mps 759 mmHg 54%
    01:00 +18°C° 0 mm 7 mps 759 mmHg 56%
    02:00 +17°C° 0 mm 7 mps 759 mmHg 59%
    03:00 +17°C° 0 mm 7 mps 759 mmHg 60%
    04:00 +16°C° 0 mm 7 mps 759 mmHg 62%
    05:00 +16°C° 0 mm 6 mps 759 mmHg 64%
    06:00 +16°C° 0 mm 6 mps 759 mmHg 64%
    07:00 +16°C° 0 mm 6 mps 760 mmHg 63%
    08:00 +17°C° 0 mm 6 mps 760 mmHg 63%
    09:00 +19°C° 0 mm 6 mps 761 mmHg 56%
    10:00 +21°C° 0 mm 6 mps 761 mmHg 49%
    11:00 +22°C° 0 mm 7 mps 761 mmHg 42%
    12:00 +22°C° 0 mm 7 mps 761 mmHg 41%
    13:00 +23°C° 0 mm 7 mps 760 mmHg 41%
    14:00 +23°C° 0 mm 7 mps 760 mmHg 40%
    15:00 +22°C° 0 mm 7 mps 760 mmHg 45%
    16:00 +22°C° 0 mm 8 mps 760 mmHg 49%
    17:00 +21°C° 0 mm 8 mps 759 mmHg 53%
    18:00 +20°C° 0 mm 7 mps 760 mmHg 57%
    19:00 +18°C° 0 mm 7 mps 760 mmHg 61%
    20:00 +17°C° 0 mm 7 mps 760 mmHg 65%
    21:00 +17°C° 0 mm 7 mps 761 mmHg 67%
    22:00 +16°C° 0 mm 6 mps 761 mmHg 69%
    23:00 +16°C° 0 mm 6 mps 762 mmHg 70%

    22 March, Friday

    Time Temperature Precipitation Wind Pressure Humidity
    00:00 +16°C° 0 mm 6 mps 762 mmHg 74%
    01:00 +16°C° 0 mm 6 mps 761 mmHg 78%
    02:00 +15°C° 0 mm 6 mps 761 mmHg 81%
    03:00 +15°C° 0 mm 5 mps 761 mmHg 84%
    04:00 +15°C° 0 mm 5 mps 761 mmHg 88%
    05:00 +15°C° 0 mm 5 mps 761 mmHg 91%
    06:00 +15°C° 0 mm 5 mps 761 mmHg 88%
    07:00 +15°C° 0 mm 5 mps 762 mmHg 86%
    08:00 +15°C° 0 mm 5 mps 762 mmHg 84%
    09:00 +17°C° 0 mm 5 mps 762 mmHg 75%
    10:00 +19°C° 0 mm 5 mps 762 mmHg 65%
    11:00 +20°C° 0 mm 5 mps 763 mmHg 56%
    12:00 +21°C° 0 mm 5 mps 762 mmHg 54%
    13:00 +21°C° 0 mm 5 mps 762 mmHg 53%
    14:00 +21°C° 0 mm 5 mps 761 mmHg 51%
    15:00 +21°C° 0 mm 6 mps 761 mmHg 55%
    16:00 +20°C° 0 mm 6 mps 761 mmHg 59%
    17:00 +19°C° 0 mm 6 mps 761 mmHg 62%
    18:00 +19°C° 0 mm 5 mps 761 mmHg 66%
    19:00 +17°C° 0 mm 5 mps 762 mmHg 69%
    20:00 +18°C° 0 mm 4 mps 762 mmHg 72%
    21:00 +17°C° 0 mm 4 mps 762 mmHg 74%
    22:00 +17°C° 0 mm 4 mps 762 mmHg 77%
    23:00 +17°C° 0 mm 4 mps 762 mmHg 79%

    23 March, Saturday

    Time Temperature Precipitation Wind Pressure Humidity
    00:00 +17°C° 0 mm 4 mps 762 mmHg 80%
    01:00 +15°C° 0 mm 4 mps 762 mmHg 82%
    02:00 +15°C° 0 mm 5 mps 761 mmHg 83%
    03:00 +15°C° 0 mm 4 mps 761 mmHg 84%
    04:00 +15°C° 0 mm 4 mps 761 mmHg 84%
    05:00 +15°C° 0 mm 4 mps 761 mmHg 85%
    06:00 +15°C° 0 mm 4 mps 761 mmHg 83%
    07:00 +15°C° 0 mm 4 mps 762 mmHg 81%
    08:00 +16°C° 0 mm 3 mps 762 mmHg 80%
    09:00 +17°C° 0 mm 3 mps 762 mmHg 73%
    10:00 +18°C° 0 mm 3 mps 763 mmHg 67%
    11:00 +19°C° 0 mm 2 mps 763 mmHg 61%
    12:00 +19°C° 0 mm 3 mps 762 mmHg 60%
    13:00 +20°C° 0 mm 3 mps 762 mmHg 58%
    14:00 +20°C° 0 mm 4 mps 762 mmHg 57%
    15:00 +20°C° 0 mm 4 mps 762 mmHg 59%
    16:00 +19°C° 0 mm 5 mps 762 mmHg 60%
    17:00 +19°C° 0 mm 5 mps 762 mmHg 62%
    18:00 +18°C° 0 mm 4 mps 762 mmHg 63%
    19:00 +18°C° 0 mm 4 mps 762 mmHg 65%
    20:00 +17°C° 0 mm 3 mps 762 mmHg 67%
    21:00 +17°C° 0 mm 3 mps 763 mmHg 69%
    22:00 +17°C° 0 mm 2 mps 763 mmHg 71%
    23:00 +16°C° 0 mm 2 mps 763 mmHg 73%

    24 March, Sunday

    Time Temperature Precipitation Wind Pressure Humidity
    00:00 +16°C° 0 mm 2 mps 763 mmHg 74%
    01:00 +16°C° 0 mm 2 mps 763 mmHg 75%
    02:00 +15°C° 0 mm 2 mps 763 mmHg 76%
    03:00 +15°C° 0 mm 2 mps 763 mmHg 76%
    04:00 +14°C° 0 mm 3 mps 763 mmHg 76%
    05:00 +14°C° 0 mm 3 mps 763 mmHg 76%
    06:00 +14°C° 0 mm 3 mps 763 mmHg 73%
    07:00 +16°C° 0 mm 2 mps 763 mmHg 71%
    08:00 +16°C° 0 mm 2 mps 763 mmHg 68%
    09:00 +17°C° 0 mm 2 mps 763 mmHg 61%
    10:00 +18°C° 0 mm 2 mps 763 mmHg 55%
    11:00 +19°C° 0 mm 2 mps 764 mmHg 49%
    12:00 +19°C° 0 mm 3 mps 763 mmHg 46%
    13:00 +20°C° 0 mm 3 mps 763 mmHg 44%
    14:00 +20°C° 0 mm 3 mps 762 mmHg 42%
    15:00 +20°C° 0 mm 3 mps 762 mmHg 44%
    16:00 +19°C° 0 mm 3 mps 762 mmHg 46%
    17:00 +19°C° 0 mm 3 mps 761 mmHg 49%
    18:00 +18°C° 0 mm 3 mps 761 mmHg 52%
    19:00 +18°C° 0 mm 2 mps 762 mmHg 56%
    20:00 +17°C° 0 mm 2 mps 762 mmHg 60%
    21:00 +17°C° 0 mm 2 mps 762 mmHg 62%
    22:00 +17°C° 0 mm 2 mps 762 mmHg 64%
    23:00 +16°C° 0 mm 2 mps 762 mmHg 66%
    Show more